Regional Weather Roundup
Issued by NWS New Orleans/Baton Rouge, LA

Home | Current Version | Previous Version | Graphics & Text | Print | Product List | Glossary On
Versions: 1 2 3 4 5 6 7 8 9 10 11 12 13 14 15 16 17 18 19 20 21 22 23 24 25 26 27 28 29 30 31 32 33 34 35 36 37 38 39 40 41 42 43 44 45 46 47 48 49 50
734
ASUS44 KLIX 210807
RWRLIX
NEW ORLEANS REGIONAL WEATHER ROUNDUP
NATIONAL WEATHER SERVICE NEW ORLEANS LA
300 AM CDT TUE APR 21 2015

NOTE: "FAIR" INDICATES FEW OR NO CLOUDS BELOW 12,000 FEET WITH NO
      SIGNIFICANT WEATHER AND/OR OBSTRUCTIONS TO VISIBILITY.
      SKY/WX - SKY CONDITION AND SIGNIFICANT WEATHER.
      TMP - AIR TEMPERATURE.     DP    - DEWPOINT TEMPERATURE.
      RH  - RELATIVE HUMIDITY.   PRES  - PRESSURE.
      HI  - HEAT INDEX.          WCI   - WIND CHILL INDEX.

*  THESE STATIONS ARE NOT NWS OR FAA STATIONS AND ARE NOT UNDER
   NWS QUALITY CONTROL.

LAZ038-040-048-061>063-065>067-069-210900-
SOUTHEAST LOUISIANA

CITY           SKY/WX    TMP DP  RH WIND       PRES   REMARKS
N.O. AUDUBON     N/A     64  53  65 MISG        N/A
N.O. INTL ARPT MOCLDY    65  48  54 N7        29.97S
N.O. LAKEFRONT PTCLDY    70  49  47 N15       29.97S
SLIDELL        PTCLDY    57  55  93 CALM      29.97S
BATON ROUGE    CLEAR     56  54  93 CALM      29.98F
BOOTHVILLE     CLEAR     67  58  72 N5        29.95S
BELLE CHASSE   PTCLDY    57  54  89 NE3       29.96S
BOGALUSA*        N/A     55  50  85 CALM      30.00R
GALLIANO*      MOSUNNY   63  57  80 N5        29.96F
NEW ROADS*       N/A     59  56  91 CALM      29.99S
GONZALES*        N/A     59  56  91 CALM      29.97S
HAMMOND*       PTCLDY    54  52  94 N5        29.99F
HOUMA*         PTCLDY    58  54  85 N6        29.96F
PORT FOURCHON* NOT AVBL

$$

MSZ070-080>082-210900-
SOUTHERN MISSISSIPPI

CITY           SKY/WX    TMP DP  RH WIND       PRES   REMARKS
MCCOMB         MOCLDY    53  51  93 CALM      29.99S
GULFPORT       PTCLDY    57  51  80 N3        29.97R
BILOXI         PTCLDY    60  51  74 N2        29.97R
PASCAGOULA     CLEAR     55  53  93 CALM      29.97R

$$

COASTAL OBSERVATIONS
LAKE AND NEARSHORE STATIONS

STATION/POSITION TIME  TEMP    WIND        PRES    WAVE
                       AIR SEA DIR/SP/G            HT/PER
                 (UTC) (F)     (DEG/KT/KT) (MB)    (FT/S)
PASCAGOULA       0700   61     360/  8/  9 1013.9
WAVELAND YACHT   0700   64 71  360/  9/ 12 1014.6
GRAND ISLE       0700   70 76   30/ 10/ 12 1014.0
SOUTHWEST PASS   0700   68 64   10/ 11/ 12 1014.2
NEW CANAL        0700   70      10/ 11/ 13 1015.2
SHELL BEACH      0700   69 75  360/ 13/ 15 1014.0

OFFSHORE STATIONS

STATION/POSITION TIME  TEMP    WIND        PRES    WAVE
                       AIR SEA DIR/SP/G            HT/PER
                 (UTC) (F)     (DEG/KT/KT) (MB)    (FT/S)
64 S DAUPHIN ISL 0750   71 74   10/ 16/ 17 1013.6    3/ 4

$$




USA.gov is the U.S. government's official web portal to all federal, state and local government web resources and services.